Regional Weather Roundup
Issued by NWS Newport/Morehead, NC

Home | Current Version | Previous Version | Text Only | Print | Product List | Glossary On
Versions: 1 2 3 4 5 6 7 8 9 10 11 12 13 14 15 16 17 18 19 20 21 22 23 24 25 26 27 28 29 30 31 32 33 34 35 36 37 38 39 40 41 42 43 44 45 46 47 48 49 50
000
ASUS42 KMHX 301213
RWRMHX
WEATHER ROUNDUP FOR EASTERN NORTH CAROLINA
NATIONAL WEATHER SERVICE NEWPORT/MOREHEAD CITY NC
800 AM EDT THU JUL 30 2015

NOTE: "FAIR" INDICATES FEW OR NO CLOUDS BELOW 12,000 FEET
WITH NO SIGNIFICANT WEATHER AND/OR OBSTRUCTIONS TO VISIBILITY

NCZ015>017-031-032-045>047-102-103-301300-
NORTH COAST

CITY           SKY/WX    TMP DP  RH WIND       PRES   REMARKS
EDENTON        SUNNY     75  73  94 CALM      29.95F
ELIZABETH CITY SUNNY     80  76  87 NE5       29.96S
KITTY HAWK     SUNNY     81  77  88 E5        29.95S
MANTEO         SUNNY     81  77  89 E5        29.96S

$$

NCZ045>047-081-094-103-104-301300-
CENTRAL COAST

CITY           SKY/WX    TMP DP  RH WIND       PRES   REMARKS
FRISCO         LGT RAIN  81  77  88 E5        29.95R
SWANQUARTER      N/A     82 N/A N/A NE2       29.91S

$$

NCZ095-097-098-100-101-301300-
SOUTHERN COAST

CITY           SKY/WX    TMP DP  RH WIND       PRES   REMARKS
BEAUFORT       SUNNY     83  79  88 VRB5      29.93R
CEDAR ISLAND     N/A     84 N/A N/A E3        29.97S
JACKSONVILLE   CLOUDY    74  73  97 VRB3      29.94R FOG
PINEY ISLAND   SUNNY    N/A N/A N/A MISG      29.94R
WILMINGTON     SUNNY     75  72  90 N6        29.94R


$$

NCZ011>013-027>030-043-044-078>080-089-090>093-098-301300-
COASTAL PLAIN

CITY           SKY/WX    TMP DP  RH WIND       PRES   REMARKS
AHOSKIE        SUNNY     74  71  89 CALM      29.97S
CLINTON        SUNNY     75  73  92 CALM      29.96S
ELIZABETHTOWN  SUNNY     75  71  88 CALM      29.96S
GOLDSBORO      SUNNY     76  73  92 N2        29.94S
GREENVILLE     SUNNY     73  73 100 CALM      29.98S
HAVELOCK       PTSUNNY   80  77  90 NE8       29.95R
KENANSVILLE    SUNNY     74  72  92 CALM      29.97R
KINSTON        SUNNY     75  73  94 CALM      29.97S
NEW BERN       PTSUNNY   78  75  90 NE7       29.96R
RICHLANDS      CLOUDY    73  66  78 CALM      29.95S
ROCKY MOUNT    SUNNY     77  73  87 CALM      29.97S
WASHINGTON     SUNNY     74  73  94 E3        29.95S
WHITEVILLE     SUNNY     75  71  87 CALM      29.96R

$$

AMZ130-135-150-152-154-156-158-170-250-252-270-ANZ085-086-088-633-658-670-301300-
MARINE OBSERVATIONS

STATION/POSITION TIME  TEMP    WIND        PRES    WAVE   SWELL
                       AIR SEA DIR/SP/G            HT/PER HT/PER
                 (UTC) (F)     (DEG/KT/KT) (MB)    (FT/S) (FT/S)
CHESAPEAKE LIGHT 1200   80     150/  9/ 10 1015.1
64 E VA BEACH    1150   81 81  110/ 10/ 12 1014.1    3/10   3/10
DUCK             1100   78                   N/A
2 E DUCK         1111      71                N/A     2/ 6
OREGON INLET     1100   80                   N/A
13E OREGON INLT  1200      80                N/A     3/10
HATTERAS CG      1100   81                   N/A
DIAMOND BUOY     1150   84 85  180/ 14/ 16 1014.0    4/ 9   2/ 9
CAPE LOOKOUT     1200   82     150/  7/  7 1013.1
BEAUFORT LAB     1100   80                   N/A
30 SE NEW RVR IN NOT AVBL
27 SE WRIGHTSVLE 1100   77 82   20/  6/ 10   N/A
5 SE WRIGHTSVLE  1108   77 82  350/ 10/ 12 1013.5
225 S CAPE HAT   1150   83 81  170/ 19/ 23 1014.9    7/ 8
41 SE CHARLESTON 1150   82 84   10/ 10/ 14 1012.9    4/ 8   3/ 8

$$


USA.gov is the U.S. government's official web portal to all federal, state and local government web resources and services.